Regional Weather Roundup
Issued by NWS

Home | Current Version | Previous Version | Text Only | Print | Product List | Glossary On
Versions: 1 2 3 4 5 6 7 8 9 10 11 12 13 14 15 16 17 18 19 20 21 22 23 24 25 26 27 28 29 30 31 32 33 34 35 36 37 38 39 40 41 42 43 44 45 46 47 48 49 50
311
ASUS43 KTOP 251708
RWRKS

WEATHER ROUNDUP FOR KANSAS
NATIONAL WEATHER SERVICE GOODLAND KS
1200 PM CDT SAT MAR 25 2017

NOTE:  "FAIR" INDICATES FEW OR NO CLOUDS BELOW 12,000 FEET WITH NO
SIGNIFICANT WEATHER AND/OR OBSTRUCTIONS TO VISIBILITY.

KSZ001>006-013>018-027>032-041>047-251800-
NORTHWEST KANSAS

CITY           SKY/WX    TMP DP  RH WIND       PRES   REMARKS
GOODLAND       SUNNY     50  30  46 N10       30.04F
HAYS             N/A     43  39  86 N14       30.02R
HILL CITY      CLOUDY    43  39  86 N12       30.04R
RUSSELL        CLOUDY    41  38  89 N16       29.99F
$$

KSZ061>065-074>080-084>089-251800-
SOUTHWEST KANSAS

CITY           SKY/WX    TMP DP  RH WIND       PRES   REMARKS
DODGE CITY     CLOUDY    53  37  54 N18G25    30.02S
ELKHART          N/A     55  25  31 N8          N/A
GARDEN CITY    SUNNY     54  29  38 NW18      30.03F
GREAT BEND     CLOUDY    43  39  86 N17       30.00S
LIBERAL        SUNNY     55  32  41 N17       30.06S
PRATT          CLOUDY    43  37  79 N18       30.00S
$$

KSZ066>073-081>083-090>101-251800-
SOUTHEAST KANSAS

CITY           SKY/WX    TMP DP  RH WIND       PRES   REMARKS
CHANUTE        CLOUDY    49  43  80 N13       29.87R
COFFEYVILLE    CLOUDY    50  43  77 W12       29.90R
HUTCHINSON     CLOUDY    43  38  82 N15G23    29.97R
MEDICINE LODGE   N/A     46  38  73 N15       30.00R
NEWTON         CLOUDY    42  39  89 N18       29.94R
PARSONS        CLOUDY    49  43  80 NW13      29.89R
WICHITA INTL   CLOUDY    44  40  85 N17       29.95R
WICHITA JABRA  CLOUDY    44  40  85 N16       29.94R
WICHITA MCCONL CLOUDY    44  39  83 NW16      29.94R
WINFIELD       CLOUDY    46  42  86 NW13      29.96R
$$

KSZ007>012-019>026-033>040-048>060-102>105-251800-
NORTHEAST KANSAS

CITY           SKY/WX    TMP DP  RH WIND       PRES   REMARKS
CONCORDIA      LGT RAIN  41  39  93 N14       29.97S
EMPORIA        LGT RAIN  44  43  96 NW14      29.88R
LAWRENCE       LGT RAIN  49  48  97 NW8       29.86R
MANHATTAN      CLOUDY    44  42  93 N7        29.93R FOG
MARYSVILLE     LGT RAIN  43  41  93 N14       29.94R
OLATHE IND     LGT RAIN  50  49  96 N15       29.84S FOG
OLATHE EXE     CLOUDY    51  51 100 NW8       29.83S
SALINA         CLOUDY    44  40  85 N21       29.97S
TOPEKA BILLARD CLOUDY    49  47  93 N14       29.87R
TOPEKA FORBES  CLOUDY    49  46  90 N12       29.86S
$$




USA.gov is the U.S. government's official web portal to all federal, state and local government web resources and services.